CW1967 Weather Reports


Display with metric or nautical units.
time (UTC)temp
F
wind
direction
speed
MPH
gust
MPH
rain 1hr
in
rain 24hr
in
rain mn
in
humidity
%
barometer
mb
20260503184709 0 25 1.0 2.0 0.00 0.00 0.00 1020.4
20260503184703 60 226 8.0 22.0 0.00 0.00 0.00 38 1018.7
20260503184539 61 290 3.0 9.0 0.00 0.02 0.02 80 1012.5
20260503184206 0 56 2.0 3.0 0.00 0.00 0.00 1020.5
20260503184204 62 258 6.0 15.0 0.00 0.00 0.00 39 1018.7
20260503183703 0 16 4.0 5.0 0.00 0.00 0.00 1020.5
20260503183204 62 261 7.0 13.0 0.00 0.00 0.00 38 1018.8
20260503183200 0 306 0.0 0.0 0.00 0.00 0.00 1020.6
20260503183029 61 300 5.0 9.0 0.00 0.02 0.02 79 1012.4
20260503182704 63 317 2.0 8.0 0.00 0.00 0.00 41 1018.7
20260503182658 0 281 2.0 2.0 0.00 0.00 0.00 1020.8
20260503182203 63 342 3.0 10.0 0.00 0.00 0.00 37 1018.7
20260503182156 0 27 3.0 3.0 0.00 0.00 0.00 1020.6
20260503181703 62 237 5.0 14.0 0.00 0.00 0.00 40 1018.9
20260503181652 0 262 2.0 2.0 0.00 0.00 0.00 1020.8
20260503181529 62 311 4.0 8.0 0.00 0.02 0.02 78 1012.4
20260503181204 62 262 8.0 14.0 0.00 0.00 0.00 39 1019.0
20260503181149 0 121 3.0 3.0 0.00 0.00 0.00 1020.9
20260503180703 62 266 4.0 18.0 0.00 0.00 0.00 38 1019.0
20260503180646 0 35 1.0 3.0 0.00 0.00 0.00 1020.8
20260503180144 0 18 2.0 5.0 0.00 0.00 0.00 1020.9
20260503180035 63 308 4.0 6.0 0.00 0.02 0.02 78 1012.3
20260503175641 0 352 2.0 2.0 0.00 0.00 0.00 1020.8
20260503175203 62 247 5.0 10.0 0.00 0.00 0.00 40 1018.8
20260503175138 0 267 2.0 3.0 0.00 0.00 0.00 1020.7
20260503174704 61 240 6.0 15.0 0.00 0.00 0.00 41 1019.0
20260503174634 0 64 1.0 1.0 0.00 0.00 0.00 1020.9
20260503174532 63 347 3.0 9.0 0.00 0.02 0.02 77 1012.4
20260503174204 61 292 5.0 16.0 0.00 0.00 0.00 41 1019.0
20260503174132 0 9 1.0 1.0 0.00 0.00 0.00 1021.1
20260503173704 61 238 7.0 18.0 0.00 0.01 0.00 39 1019.1
20260503173627 0 31 2.0 3.0 0.00 0.00 0.00 1021.0
20260503173204 60 244 8.0 15.0 0.00 0.01 0.00 40 1019.2
20260503173123 0 311 4.0 7.0 0.00 0.00 0.00 1021.2
20260503173034 64 315 4.0 9.0 0.00 0.02 0.02 78 1012.2
20260503172703 62 252 6.0 20.0 0.00 0.01 0.00 42 1019.1
20260503172620 0 256 3.0 6.0 0.00 0.00 0.00 1021.1
20260503172118 0 41 2.0 2.0 0.00 0.00 0.00 1021.2
20260503171614 0 298 2.0 2.0 0.00 0.00 0.00 1021.4
20260503171529 63 317 5.0 9.0 0.00 0.02 0.02 79 1012.2
20260503171203 61 275 7.0 16.0 0.00 0.02 0.00 42 1019.3
20260503171112 0 350 1.0 2.0 0.00 0.00 0.00 1021.3
20260503170704 60 235 12.0 20.0 0.00 0.02 0.00 41 1019.1
20260503170609 0 65 1.0 1.0 0.00 0.00 0.00 1021.5
20260503170204 61 253 7.0 13.0 0.00 0.02 0.00 42 1019.2
20260503170105 0 62 1.0 2.0 0.00 0.00 0.00 1021.4
20260503160204 59 245 5.0 12.0 0.00 0.05 0.00 44 1019.6
20260503151000 0 43 1.0 2.0 0.00 0.00 0.00 1022.4
20260503150704 57 274 3.0 12.0 0.00 0.07 0.00 45 1019.8
20260503150456 0 121 2.0 3.0 0.00 0.00 0.00 1022.3
20260503150204 57 237 6.0 13.0 0.00 0.07 0.00 44 1019.8
20260503140203 56 267 7.0 16.0 0.00 0.07 0.00 49 1019.6
20260503131349 0 28 0.0 0.0 0.00 0.00 0.00 1021.4
20260503131204 56 319 3.0 9.0 0.00 0.08 0.00 49 1019.2
20260503130847 0 36 0.0 0.0 0.00 0.00 0.00 1021.4
20260503130704 56 293 2.0 9.0 0.00 0.08 0.00 51 1019.2
20260503130344 0 23 0.0 0.0 0.00 0.00 0.00 1021.3
20260503130203 55 328 3.0 9.0 0.00 0.08 0.00 50 1019.2
20260503110738 0 296 0.0 0.0 0.00 0.00 0.00 1020.5
20260503110704 51 329 5.0 8.0 0.00 0.09 0.00 54 1017.8
20260503110236 0 351 0.0 0.0 0.00 0.00 0.00 1020.4
20260503110203 51 312 5.0 8.0 0.00 0.09 0.00 54 1017.8
20260503100204 47 267 2.0 5.0 0.00 0.09 0.00 80 1016.5
20260503100202 0 315 0.0 0.0 0.00 0.00 0.00 1020.1
20260503090204 46 272 2.0 2.0 0.00 0.09 0.00 87 1015.8
20260503090121 0 334 0.0 0.0 0.00 0.00 0.00 1019.7
20260503090117 63 234 7.0 11.0 0.00 0.05 0.01 85 1013.4
20260503081601 64 273 6.0 11.0 0.00 0.06 0.01 86 1013.3
20260503081556 0 26 0.0 0.0 0.00 0.00 0.00 1019.5
20260503081203 46 260 1.0 2.0 0.00 0.09 0.00 86 1015.4
20260503081054 0 8 0.0 0.0 0.00 0.00 0.00 1019.4
20260503080703 46 254 1.0 2.0 0.00 0.09 0.00 85 1015.2
20260503080549 0 355 0.0 0.0 0.00 0.00 0.00 1019.4
20260503080203 46 268 2.0 2.0 0.00 0.09 0.00 85 1015.1
20260503080107 64 273 6.0 8.0 0.00 0.06 0.01 88 1013.2
20260503072703 47 271 2.0 2.0 0.00 0.09 0.00 85 1014.8
20260503072523 0 351 0.0 0.0 0.00 0.00 0.00 1019.1
20260503072204 46 267 2.0 3.0 0.00 0.09 0.00 85 1014.6
20260503072020 0 359 0.0 0.0 0.00 0.00 0.00 1019.2
20260503071703 46 269 2.0 3.0 0.00 0.09 0.00 86 1014.7
20260503071604 61 223 5.0 7.0 0.00 0.08 0.01 91 1013.0
20260503071517 0 23 0.0 0.0 0.00 0.00 0.00 1019.2
20260503071203 46 279 2.0 2.0 0.00 0.09 0.00 86 1014.8
20260503071014 0 326 1.0 1.0 0.00 0.00 0.00 1019.3
20260503070511 0 2 0.0 0.0 0.00 0.00 0.00 1019.2
20260503070204 46 269 2.0 3.0 0.00 0.09 0.00 86 1014.6
20260503060204 48 254 5.0 6.0 0.00 0.09 0.00 82 1014.3
20260503054922 0 341 0.0 0.0 0.00 0.00 0.00 1018.9
20260503054704 47 264 2.0 3.0 0.00 0.09 0.00 84 1014.2
20260503054554 60 192 4.0 8.0 0.00 0.07 0.00 92 1012.7
20260503054419 0 353 0.0 0.0 0.00 0.00 0.00 1018.8
20260503054203 47 262 2.0 3.0 0.00 0.09 0.00 82 1014.1
20260503053917 0 2 0.0 0.0 0.00 0.00 0.00 1018.9
20260503053704 48 262 2.0 2.0 0.00 0.09 0.00 82 1014.1
20260503053414 0 6 0.0 0.0 0.00 0.00 0.00 1018.9
20260503053204 48 254 2.0 2.0 0.00 0.09 0.00 82 1014.2
20260503053040 59 170 5.0 8.0 0.00 0.07 0.00 92 1012.6
20260503052910 0 352 0.0 0.0 0.00 0.00 0.00 1018.8
20260503052704 48 276 1.0 3.0 0.00 0.09 0.00 83 1014.3
20260503052408 0 350 0.0 0.0 0.00 0.00 0.00 1018.8
20260503052204 48 264 2.0 2.0 0.00 0.09 0.00 82 1014.4
20260503051904 0 335 0.0 0.0 0.00 0.00 0.00 1018.8
20260503051704 49 266 2.0 2.0 0.00 0.09 0.00 82 1014.3
20260503051539 59 159 4.0 8.0 0.00 0.07 0.00 92 1012.5
20260503051400 0 356 0.0 0.0 0.00 0.00 0.00 1018.7
20260503050857 0 19 1.0 1.0 0.00 0.00 0.00 1018.8
20260503050353 0 358 0.0 0.0 0.00 0.00 0.00 1018.8
20260503050204 49 255 2.0 3.0 0.00 0.09 0.00 81 1014.4
20260503050044 58 169 2.0 7.0 0.00 0.07 0.00 92 1012.4
20260503045851 0 359 0.0 0.0 0.00 0.76 0.76 1018.7
20260503045704 50 237 1.0 2.0 0.00 0.09 0.00 79 1014.2
20260503045348 0 0 0.0 0.0 0.00 0.76 0.76 1018.6
20260503045204 50 263 1.0 2.0 0.00 0.09 0.00 79 1014.3
20260503044845 0 357 0.0 0.0 0.00 0.76 0.76 1018.7
20260503044549 58 170 5.0 8.0 0.00 0.07 0.00 92 1012.3
20260503044342 0 332 0.0 0.0 0.00 0.76 0.76 1018.6
20260503044204 51 262 1.0 2.0 0.00 0.09 0.00 78 1014.4
20260503043839 0 318 0.0 1.0 0.00 0.76 0.76 1018.6
20260503043703 51 254 1.0 2.0 0.00 0.09 0.00 77 1014.4
20260503043336 0 339 0.0 0.0 0.00 0.76 0.76 1018.6
20260503043044 58 163 4.0 9.0 0.00 0.07 0.00 92 1012.3
20260503042832 0 331 0.0 0.0 0.00 0.76 0.76 1018.6
20260503042703 51 267 2.0 2.0 0.00 0.09 0.00 75 1014.4
20260503042329 0 325 0.0 1.0 0.00 0.76 0.76 1018.6
20260503042204 51 255 2.0 2.0 0.00 0.09 0.00 75 1014.3
20260503041825 0 334 0.0 0.0 0.00 0.76 0.76 1018.6
20260503041703 51 271 2.0 3.0 0.00 0.09 0.00 77 1014.6
20260503041535 58 161 4.0 7.0 0.00 0.07 0.00 92 1012.4
20260503041322 0 354 0.0 0.0 0.00 0.76 0.76 1018.4
20260503041203 51 265 2.0 2.0 0.00 0.09 0.00 78 1014.4
20260503040820 0 352 0.0 0.0 0.00 0.76 0.76 1018.5
20260503040703 51 268 1.0 2.0 0.00 0.09 0.00 79 1014.3
20260503040317 0 358 0.0 0.0 0.00 0.76 0.76 1018.6
20260503040204 51 245 2.0 3.0 0.00 0.09 0.00 78 1014.5
20260503040039 58 138 4.0 8.0 0.00 0.07 0.00 92 1012.4
20260503035814 0 359 0.0 0.0 0.00 0.76 0.76 1018.5
20260503035311 0 344 0.0 0.0 0.00 0.76 0.76 1018.5
20260503035204 51 261 2.0 2.0 0.00 0.09 0.09 78 1014.4
20260503034808 0 328 0.0 0.0 0.00 0.76 0.76 1018.5
20260503034704 51 272 2.0 2.0 0.00 0.09 0.09 77 1014.5
20260503034534 58 176 6.0 9.0 0.00 0.07 0.00 92 1012.6
20260503034305 0 326 0.0 0.0 0.00 0.76 0.76 1018.3
20260503034203 51 271 2.0 3.0 0.00 0.09 0.09 77 1014.5
20260503033803 0 352 0.0 0.0 0.00 0.76 0.76 1018.2
20260503033703 52 253 2.0 2.0 0.00 0.09 0.09 76 1014.4
20260503033300 0 336 0.0 0.0 0.00 0.76 0.76 1018.3
20260503033203 52 249 2.0 2.0 0.00 0.09 0.09 74 1014.4
20260503033032 57 156 5.0 8.0 0.00 0.07 0.00 92 1012.6
20260503032758 0 357 0.0 0.0 0.00 0.76 0.76 1018.1
20260503032704 52 260 2.0 3.0 0.00 0.09 0.09 74 1014.3
20260503032257 0 345 0.0 0.0 0.00 0.76 0.76 1018.2
20260503032203 52 193 1.0 3.0 0.00 0.09 0.09 74 1014.2
20260503031753 0 355 0.0 0.0 0.00 0.76 0.76 1018.0
20260503031703 52 236 2.0 3.0 0.00 0.09 0.09 75 1014.3
20260503031534 57 134 4.0 8.0 0.00 0.07 0.00 92 1012.7
20260503031251 0 349 0.0 0.0 0.00 0.76 0.76 1018.0
20260503031204 52 245 1.0 2.0 0.00 0.09 0.09 74 1014.2
20260503030747 0 347 0.0 0.0 0.00 0.76 0.76 1017.9
20260503030244 0 349 0.0 0.0 0.00 0.76 0.76 1017.9
20260503030203 52 236 1.0 2.0 0.00 0.09 0.09 71 1014.2
20260503030030 57 143 4.0 6.0 0.00 0.07 0.00 91 1012.9
20260503025741 0 350 0.0 0.0 0.00 0.76 0.76 1017.9
20260503025704 52 274 1.0 2.0 0.00 0.09 0.09 73 1014.2
20260503025238 0 312 0.0 1.0 0.00 0.76 0.76 1017.8
20260503025203 52 261 1.0 2.0 0.00 0.09 0.09 73 1014.2
20260503024735 0 340 0.0 0.0 0.00 0.76 0.76 1017.8
20260503024704 52 233 1.0 2.0 0.00 0.09 0.09 72 1014.5
20260503024530 56 141 4.0 5.0 0.00 0.07 0.00 91 1012.8
20260503024232 0 330 1.0 1.0 0.00 0.76 0.76 1017.9
20260503024204 52 219 1.0 2.0 0.00 0.09 0.09 73 1014.4
20260503023729 0 353 0.0 0.0 0.00 0.76 0.76 1017.7
20260503023704 53 243 2.0 2.0 0.00 0.09 0.09 74 1014.5
20260503023226 0 359 0.0 0.0 0.00 0.76 0.76 1017.6
20260503023203 53 253 2.0 3.0 0.00 0.09 0.09 73 1014.6
20260503023029 56 127 3.0 6.0 0.00 0.07 0.00 91 1012.8
20260503022722 0 359 0.0 0.0 0.00 0.76 0.76 1017.5
20260503022704 53 250 2.0 2.0 0.00 0.09 0.09 73 1014.4
20260503022222 0 351 0.0 0.0 0.00 0.76 0.76 1017.5
20260503022203 53 251 2.0 2.0 0.00 0.09 0.09 72 1014.4
20260503021719 0 0 0.0 0.0 0.00 0.76 0.76 1017.7
20260503021704 53 254 1.0 2.0 0.00 0.09 0.09 75 1014.4
20260503021527 56 120 3.0 5.0 0.00 0.07 0.00 91 1012.9
20260503021215 0 2 0.0 0.0 0.00 0.76 0.76 1017.5
20260503021203 53 246 2.0 2.0 0.00 0.09 0.09 73 1014.5
20260503020713 0 354 0.0 0.0 0.00 0.76 0.76 1017.3
20260503020704 53 249 1.0 2.0 0.00 0.09 0.09 70 1014.3
20260503020210 0 338 0.0 0.0 0.00 0.76 0.76 1017.4
20260503020204 53 252 2.0 2.0 0.00 0.09 0.09 72 1014.4
20260503020027 56 124 1.0 2.0 0.00 0.07 0.00 91 1013.0
20260503015707 0 348 0.0 0.0 0.00 0.76 0.76 1017.4
20260503015704 53 268 2.0 3.0 0.00 0.09 0.09 67 1014.4
20260503015204 0 2 0.0 0.0 0.00 0.76 0.76 1017.4
20260503014704 54 258 2.0 2.0 0.00 0.09 0.09 66 1014.3
20260503014700 0 1 0.0 0.0 0.00 0.76 0.76 1017.2
20260503014528 56 124 1.0 2.0 0.00 0.07 0.00 91 1013.0
20260503014203 54 264 2.0 3.0 0.00 0.09 0.09 66 1014.4
20260503014158 0 356 0.0 0.0 0.00 0.76 0.76 1017.0
20260503013704 54 260 2.0 3.0 0.00 0.09 0.09 66 1014.3
20260503013655 0 353 0.0 0.0 0.00 0.76 0.76 1017.2
20260503013153 0 357 0.0 0.0 0.00 0.76 0.76 1016.9
20260503013025 56 124 2.0 3.0 0.00 0.07 0.00 91 1013.1
20260503012704 54 255 1.0 2.0 0.00 0.09 0.09 64 1013.9
20260503012649 0 358 0.0 0.0 0.00 0.76 0.76 1016.9
20260503012203 54 253 1.0 2.0 0.00 0.09 0.09 64 1013.9
20260503012147 0 6 0.0 0.0 0.00 0.76 0.76 1016.7
20260503011643 0 355 0.0 0.0 0.00 0.76 0.76 1016.8
20260503011524 56 134 1.0 3.0 0.00 0.07 0.00 91 1013.4
20260503011204 54 269 1.0 3.0 0.00 0.09 0.09 63 1014.0
20260503011140 0 6 0.0 0.0 0.00 0.76 0.76 1016.6
20260503010636 0 358 0.0 0.0 0.00 0.76 0.76 1016.5
20260503010204 54 321 2.0 3.0 0.00 0.09 0.09 62 1014.1
20260503010134 0 56 0.0 0.0 0.00 0.76 0.76 1016.6
20260503010027 56 126 2.0 4.0 0.00 0.07 0.00 90 1013.4
20260503005704 54 230 1.0 2.0 0.00 0.09 0.09 63 1014.0
20260503005631 0 1 0.0 0.0 0.00 0.76 0.76 1016.4
20260503005128 0 359 0.0 0.0 0.00 0.76 0.76 1016.3
20260503004704 54 276 1.0 3.0 0.00 0.09 0.09 63 1013.9
20260503004624 0 14 1.0 1.0 0.00 0.76 0.76 1016.2
20260503004519 56 136 3.0 5.0 0.00 0.07 0.00 90 1013.6
20260503004204 54 234 1.0 3.0 0.00 0.09 0.09 61 1014.0
20260503004123 0 17 1.0 1.0 0.00 0.76 0.76 1016.0
20260503003619 0 19 0.0 1.0 0.00 0.76 0.76 1015.8
20260503003203 54 280 2.0 3.0 0.00 0.09 0.09 60 1013.6
20260503003116 0 73 0.0 1.0 0.00 0.76 0.76 1015.8
20260503003019 57 149 3.0 7.0 0.00 0.07 0.00 90 1013.7
20260503002613 0 39 0.0 0.0 0.00 0.76 0.76 1015.7
20260503002203 55 264 2.0 3.0 0.00 0.09 0.09 57 1013.5
20260503002110 0 15 1.0 2.0 0.00 0.76 0.76 1015.5
20260503001704 55 46 2.0 3.0 0.00 0.09 0.09 56 1013.6
20260503001606 0 325 0.0 0.0 0.00 0.76 0.76 1015.5
20260503001516 57 124 4.0 6.0 0.00 0.07 0.00 90 1013.7
20260503001103 0 9 1.0 1.0 0.00 0.76 0.76 1015.4
20260503000703 55 257 1.0 5.0 0.00 0.09 0.09 53 1013.5
20260503000601 0 333 1.0 2.0 0.00 0.76 0.76 1015.4
20260503000204 55 264 2.0 3.0 0.00 0.09 0.09 52 1013.4
20260503000058 0 12 1.0 1.0 0.00 0.76 0.76 1015.3
20260503000026 58 118 1.0 3.0 0.00 0.07 0.00 90 1013.8
20260502235703 55 247 1.0 3.0 0.00 0.09 0.09 52 1013.1
20260502235554 0 76 2.0 3.0 0.00 0.76 0.76 1015.1
20260502235203 55 255 2.0 5.0 0.00 0.09 0.09 52 1013.3
20260502235052 0 12 2.0 2.0 0.00 0.76 0.76 1015.3
20260502234704 55 248 2.0 5.0 0.00 0.09 0.09 49 1013.4
20260502234548 0 352 1.0 2.0 0.00 0.76 0.76 1015.0
20260502234512 58 128 2.0 4.0 0.00 0.07 0.00 90 1014.0
20260502234046 0 307 4.0 6.0 0.00 0.76 0.76 1015.0
20260502233704 55 339 2.0 5.0 0.00 0.09 0.09 50 1013.1
20260502233546 0 29 5.0 7.0 0.00 0.76 0.76 1014.8
20260502233203 55 301 3.0 6.0 0.00 0.09 0.09 51 1013.1
20260502233043 0 280 1.0 2.0 0.00 0.76 0.76 1014.8
20260502233008 59 123 3.0 6.0 0.00 0.07 0.00 90 1014.1
20260502232539 0 13 0.0 0.0 0.00 0.76 0.76 1014.9
20260502232204 55 343 2.0 5.0 0.00 0.09 0.09 56 1013.1
20260502232037 0 22 2.0 2.0 0.00 0.76 0.76 1014.7
20260502231703 55 269 1.0 3.0 0.00 0.09 0.09 57 1013.3
20260502231533 0 46 5.0 7.0 0.00 0.76 0.76 1014.7
20260502231506 59 130 3.0 5.0 0.00 0.07 0.00 90 1014.2
20260502231203 55 270 2.0 3.0 0.00 0.09 0.09 56 1013.3
20260502231032 0 47 3.0 6.0 0.00 0.76 0.76 1014.7
20260502230704 55 268 2.0 5.0 0.00 0.09 0.09 57 1013.0
20260502230530 0 69 3.0 5.0 0.00 0.76 0.76 1014.6
20260502230204 55 288 2.0 3.0 0.00 0.09 0.09 58 1013.1
20260502230028 0 37 2.0 2.0 0.00 0.76 0.76 1014.6
20260502230006 59 144 1.0 5.0 0.00 0.07 0.00 89 1014.2
20260502225703 56 359 3.0 7.0 0.00 0.09 0.09 57 1013.1
20260502225523 0 335 3.0 3.0 0.00 0.76 0.76 1014.7
20260502225203 56 284 2.0 5.0 0.00 0.09 0.09 59 1013.1
20260502225020 0 348 2.0 3.0 0.00 0.76 0.76 1014.8
20260502224704 56 259 2.0 3.0 0.00 0.09 0.09 60 1013.0
20260502224516 0 20 2.0 2.0 0.00 0.76 0.76 1014.5
20260502224504 59 141 2.0 4.0 0.00 0.07 0.00 89 1014.4
20260502224014 0 327 1.0 1.0 0.00 0.76 0.76 1014.5
20260502223703 56 332 3.0 8.0 0.00 0.09 0.09 56 1013.1
20260502223511 0 229 1.0 2.0 0.00 0.76 0.76 1014.5
20260502223204 56 35 2.0 8.0 0.00 0.09 0.09 57 1013.3
20260502223009 0 25 1.0 2.0 0.00 0.76 0.76 1014.3
20260502222704 56 264 2.0 5.0 0.00 0.09 0.09 55 1013.4
20260502222506 0 305 2.0 2.0 0.00 0.76 0.76 1014.3
20260502222203 56 298 1.0 7.0 0.00 0.09 0.09 55 1013.4
20260502222003 0 313 2.0 2.0 0.00 0.76 0.76 1014.3
20260502221703 56 358 2.0 6.0 0.00 0.09 0.09 55 1013.4
20260502221500 59 142 2.0 4.0 0.01 0.07 0.00 89 1014.7
20260502221458 0 335 1.0 1.0 0.00 0.76 0.76 1014.4
20260502220955 0 297 1.0 1.0 0.00 0.76 0.76 1014.2
20260502220704 56 318 2.0 7.0 0.00 0.09 0.09 56 1013.3
20260502220451 0 149 1.0 3.0 0.00 0.76 0.76 1014.3
20260502220204 56 15 2.0 8.0 0.00 0.09 0.09 59 1013.2
20260502220110 59 173 2.0 4.0 0.01 0.07 0.00 88 1014.6
20260502215948 0 105 3.0 6.0 0.00 0.76 0.76 1014.0
20260502215703 57 320 3.0 8.0 0.00 0.09 0.09 61 1013.4
20260502215445 0 224 3.0 6.0 0.00 0.76 0.76 1013.9
20260502214942 0 127 4.0 6.0 0.00 0.76 0.76 1014.2
20260502214558 59 160 2.0 5.0 0.01 0.07 0.07 88 1014.6
20260502214439 0 51 4.0 6.0 0.00 0.76 0.76 1013.9
20260502214203 57 8 1.0 5.0 0.00 0.09 0.09 63 1013.1
20260502213936 0 309 5.0 8.0 0.00 0.76 0.76 1013.9
20260502213704 57 224 3.0 7.0 0.00 0.09 0.09 62 1013.2
20260502213433 0 25 1.0 1.0 0.00 0.76 0.76 1013.7
20260502213204 58 356 2.0 5.0 0.00 0.09 0.09 62 1013.0
20260502213058 59 182 4.0 7.0 0.00 0.06 0.06 88 1014.7
20260502212932 0 114 3.0 5.0 0.00 0.76 0.76 1013.8
20260502212703 57 0 4.0 9.0 0.00 0.09 0.09 61 1013.0
20260502212430 0 292 4.0 5.0 0.00 0.76 0.76 1013.7
20260502211927 0 347 3.0 3.0 0.00 0.76 0.76 1013.8
20260502211703 58 22 3.0 8.0 0.00 0.09 0.09 60 1012.9
20260502211558 59 182 4.0 8.0 0.00 0.06 0.06 87 1014.9
20260502211423 0 343 3.0 5.0 0.00 0.76 0.76 1013.6
20260502211203 58 9 2.0 7.0 0.00 0.09 0.09 61 1012.9
20260502210920 0 120 4.0 8.0 0.00 0.76 0.76 1013.9
20260502210704 58 355 3.0 6.0 0.00 0.09 0.09 60 1012.8
20260502210417 0 346 1.0 1.0 0.00 0.76 0.76 1013.7
20260502210204 58 70 1.0 5.0 0.00 0.09 0.09 59 1012.7
20260502210122 60 159 5.0 10.0 0.00 0.06 0.06 87 1015.0
20260502205914 0 318 3.0 3.0 0.00 0.76 0.76 1013.8
20260502205410 0 301 2.0 3.0 0.00 0.76 0.76 1013.9
20260502205203 57 315 2.0 12.0 0.00 0.09 0.09 59 1012.9
20260502204908 0 328 3.0 3.0 0.00 0.76 0.76 1013.8
20260502204557 60 150 5.0 10.0 0.00 0.06 0.06 86 1015.0
20260502204404 0 284 1.0 1.0 0.00 0.76 0.76 1013.8
20260502204203 57 341 3.0 7.0 0.00 0.09 0.09 57 1012.9
20260502203902 0 84 3.0 6.0 0.00 0.76 0.76 1013.8
20260502203703 57 340 3.0 12.0 0.00 0.09 0.09 58 1012.8
20260502203359 74 125 2.0 2.0 0.00 0.76 0.76 58 1013.7
20260502203203 57 24 3.0 13.0 0.00 0.09 0.09 56 1012.8
20260502203056 60 152 5.0 8.0 0.00 0.06 0.06 86 1014.8
20260502202855 76 288 2.0 2.0 0.00 0.76 0.76 54 1013.9
20260502202703 58 21 6.0 13.0 0.00 0.09 0.09 57 1012.8
20260502202352 74 320 2.0 3.0 0.00 0.76 0.76 57 1013.8
20260502202204 58 14 4.0 7.0 0.00 0.09 0.09 56 1012.9
20260502201850 73 40 3.0 5.0 0.00 0.76 0.76 60 1013.9
20260502201703 58 249 4.0 8.0 0.00 0.09 0.09 57 1012.8
20260502201556 60 138 6.0 10.0 0.00 0.06 0.06 86 1014.7
20260502201346 0 318 4.0 6.0 0.00 0.76 0.76 1014.0
20260502201203 58 343 2.0 8.0 0.00 0.09 0.09 61 1012.8
20260502200842 72 20 3.0 5.0 0.00 0.76 0.76 63 1014.0
20260502200704 58 22 5.0 9.0 0.00 0.09 0.09 60 1013.0
20260502200338 73 22 1.0 2.0 0.00 0.76 0.76 65 1014.0
20260502200204 58 11 2.0 7.0 0.00 0.09 0.09 63 1013.0
20260502200124 60 152 3.0 6.0 0.00 0.06 0.06 87 1014.7
20260502195837 72 336 2.0 3.0 0.00 0.76 0.76 61 1014.1
20260502195704 58 343 4.0 8.0 0.00 0.09 0.09 63 1013.0
20260502195333 73 94 2.0 3.0 0.00 0.76 0.76 63 1014.1
20260502195204 57 223 2.0 3.0 0.00 0.09 0.09 65 1012.9
20260502194830 73 2 5.0 7.0 0.00 0.76 0.76 60 1014.1
20260502194704 57 305 2.0 6.0 0.00 0.09 0.09 68 1012.8
20260502194558 60 163 4.0 8.0 0.00 0.06 0.06 86 1014.8
20260502194327 72 63 3.0 6.0 0.00 0.76 0.76 62 1014.1
20260502194204 56 26 3.0 6.0 0.00 0.09 0.09 69 1012.9
20260502193822 73 334 6.0 8.0 0.00 0.76 0.76 58 1014.1
20260502193704 56 6 2.0 5.0 0.00 0.09 0.09 71 1013.2
20260502193320 71 183 1.0 1.0 0.00 0.76 0.76 66 1014.1
20260502193204 56 264 2.0 3.0 0.00 0.09 0.09 70 1013.5
20260502193055 61 180 3.0 7.0 0.00 0.06 0.06 86 1014.8
20260502192815 73 45 4.0 6.0 0.00 0.76 0.76 60 1014.3
20260502192703 56 310 2.0 5.0 0.00 0.09 0.09 70 1013.7
20260502192313 72 30 1.0 2.0 0.00 0.76 0.76 65 1014.4
20260502192204 55 308 3.0 7.0 0.00 0.09 0.09 70 1013.6
20260502191810 71 23 3.0 3.0 0.00 0.76 0.76 64 1014.5
20260502191704 55 309 3.0 7.0 0.00 0.09 0.09 69 1013.5
20260502191601 61 154 4.0 10.0 0.00 0.06 0.06 86 1014.7
20260502191308 72 308 2.0 2.0 0.00 0.76 0.76 64 1014.4
20260502191203 55 73 3.0 7.0 0.00 0.09 0.09 68 1013.1
20260502190805 71 343 6.0 8.0 0.00 0.76 0.76 63 1014.4
20260502190703 55 13 2.0 6.0 0.00 0.09 0.09 69 1013.4
20260502190302 71 297 3.0 3.0 0.00 0.76 0.76 66 1014.7
20260502190203 56 16 3.0 6.0 0.00 0.09 0.09 69 1013.5
20260502190058 61 184 3.0 6.0 0.00 0.06 0.06 85 1014.8
20260502185757 0 10 2.0 2.0 0.00 0.76 0.76 1014.7
20260502185703 56 24 6.0 9.0 0.00 0.09 0.09 69 1013.9
20260502185253 0 280 5.0 8.0 0.00 0.76 0.76 1014.8